Location: Freistadt
(48.5112°N, 14.5013°E)
Time: 00:56:24
(UTC+01:00)

N. Korean satellite - Visible Passes

Search period start: 27 November 2022 00:00
Search period end: 07 December 2022 00:00
Orbit: 422 x 454 km, 97.3° (Epoch: 26 November)

Date Brightness Start Highest point End Pass type
(mag) Time Alt. Az. Time Alt. Az. Time Alt. Az.
27 Nov 9.7 04:23:49 10° ENE 04:25:41 14° E 04:27:33 10° ESE visible
27 Nov 6.7 05:55:10 10° N 05:58:27 43° WNW 06:01:42 10° SW visible
28 Nov 6.9 05:16:27 10° NNE 05:19:52 59° E 05:23:14 10° S visible
28 Nov 8.3 06:50:35 10° NW 06:51:55 12° WNW 06:53:15 10° W visible
28 Nov 9.6 17:22:51 10° SW 17:25:12 18° W 17:27:35 10° NW visible
29 Nov 9.1 04:38:24 10° NE 04:41:02 20° E 04:43:38 10° SE visible
29 Nov 7.2 06:10:34 10° N 06:13:35 29° WNW 06:16:34 10° SW visible
29 Nov 7.5 16:43:02 10° S 16:46:19 51° W 16:49:39 10° NNW visible
30 Nov 6.3 05:31:34 10° NNE 05:35:01 87° WNW 05:38:25 10° SSW visible
30 Nov 9.9 17:39:01 10° WSW 17:40:26 12° W 17:41:51 10° WNW visible
01 Dec 8.4 04:53:07 10° NNE 04:56:11 29° E 04:59:12 10° SSE visible
01 Dec 7.7 06:25:57 10° NNW 06:28:32 20° WNW 06:31:06 10° WSW visible
01 Dec 8.4 16:58:19 10° SSW 17:01:23 33° W 17:04:31 10° NNW visible
02 Dec 9.9 04:16:07 10° ENE 04:17:06 11° E 04:18:05 10° ESE visible
02 Dec 6.4 05:46:36 10° N 05:49:58 56° WNW 05:53:18 10° SSW visible
03 Dec 7.5 05:07:51 10° NNE 05:11:09 45° E 05:14:25 10° S visible
03 Dec 8.1 06:41:24 10° NNW 06:43:19 14° WNW 06:45:13 10° W visible
03 Dec 9.2 17:13:38 10° SSW 17:16:21 22° W 17:19:06 10° NW visible
04 Dec 9.4 04:29:53 10° NE 04:32:05 16° E 04:34:16 10° SE visible
04 Dec 6.9 06:01:35 10° N 06:04:45 36° WNW 06:07:53 10° SW visible
05 Dec 6.6 05:22:32 10° NNE 05:25:57 71° ESE 05:29:18 10° S visible
05 Dec 8.5 06:57:27 10° NW 06:57:55 10° WNW 06:58:22 10° WNW visible
05 Dec 9.6 17:29:04 10° SW 17:31:11 16° W 17:33:19 10° NW visible
06 Dec 8.8 04:44:07 10° NE 04:46:52 23° E 04:49:37 10° SSE visible
06 Dec 7.4 06:16:31 10° NNW 06:19:22 25° WNW 06:22:11 10° SW visible
06 Dec 7.8 16:48:47 10° S 16:52:01 43° W 16:55:19 10° NNW visible
